BRITE-PL2 (HEWELIUSZ)

Last updated on Sun Jul 06 2025 00:03:28 GMT+0000 (Coordinated Universal Time)

1 40119U 14049B 25186.29601455 .00001812 00000+0 18124-3 0 9997 2 40119 97.8921 291.5899 0014754 174.0679 186.0717 14.92650348589667
UTC large
Height (km)
Speed (km/s)
/
Latitude / Longitude
Inclination (degrees)
Orbital Period (minutes)
Azimuth
Elevation
Range (km)
Doppler Factor

Next 0 passes for location: London (51.5072 / 0.1276)

Sorry there are no passes over London.